LDPE-1

Last updated on Thu Oct 30 2025 00:02:52 GMT+0000 (Coordinated Universal Time)

1 49818U 21118B 25302.42973748 .00000032 00000+0 00000+0 0 9992 2 49818 3.1606 81.7085 0002612 232.5503 29.6503 1.01741825 14322
UTC large
Height (km)
Speed (km/s)
/
Latitude / Longitude
Inclination (degrees)
Orbital Period (minutes)
Azimuth
Elevation
Range (km)
Doppler Factor

Next 0 passes for location: London (51.5072 / 0.1276)

Sorry there are no passes over London.